FW7308 Weather Reports


Display with metric or nautical units.
time (UTC)temp
F
wind
direction
speed
MPH
gust
MPH
rain 1hr
in
rain 24hr
in
rain mn
in
humidity
%
barometer
mb
20260503051138 36 335 1.0 1.0 0.00 0.00 0.00 98 1011.6
20260503050636 36 326 1.0 2.0 0.00 0.00 0.00 98 1011.9
20260503050136 36 331 1.0 1.0 0.00 0.00 0.00 99 1011.9
20260503045638 36 333 1.0 1.0 0.00 0.00 0.00 99 1011.9
20260503045239 35 332 2.0 2.0 0.00 0.00 0.00 99 1011.9
20260503044635 35 327 1.0 2.0 0.00 0.00 0.00 99 1011.9
20260503044134 35 326 2.0 2.0 0.00 0.00 0.00 99 1011.9
20260503043638 35 328 2.0 2.0 0.00 0.00 0.00 99 1011.9
20260503043235 35 323 2.0 2.0 0.00 0.00 0.00 99 1012.3
20260503042638 35 324 2.0 2.0 0.00 0.00 0.00 99 1012.3
20260503042133 35 324 2.0 2.0 0.00 0.00 0.00 99 1012.3
20260503041634 35 323 2.0 2.0 0.00 0.00 0.00 99 1012.3
20260503041133 35 328 1.0 2.0 0.00 0.00 0.00 99 1012.3
20260503040633 35 328 1.0 2.0 0.00 0.00 0.00 99 1012.6
20260503040132 35 328 2.0 2.0 0.00 0.00 0.00 99 1012.6
20260503035633 35 328 2.0 2.0 0.00 0.00 0.17 99 1012.6
20260503035132 35 327 1.0 2.0 0.00 0.00 0.17 98 1012.6
20260503034631 36 328 1.0 1.0 0.00 0.00 0.17 98 1012.6
20260503034130 36 325 2.0 2.0 0.00 0.00 0.17 98 1013.0
20260503033630 36 322 2.0 2.0 0.00 0.00 0.17 97 1012.6
20260503033131 36 0.0 0.0 0.00 0.00 0.17 97 1012.6
20260503032632 37 332 1.0 1.0 0.00 0.00 0.17 97 1012.6
20260503032131 37 337 1.0 1.0 0.00 0.00 0.17 97 1012.6
20260503031728 37 327 1.0 1.0 0.00 0.00 0.17 96 1012.6
20260503031230 37 328 2.0 2.0 0.00 0.00 0.17 96 1012.6
20260503030128 37 329 1.0 1.0 0.00 0.00 0.17 95 1013.0
20260503025629 37 326 1.0 1.0 0.00 0.00 0.17 95 1012.8
20260503025132 38 335 1.0 1.0 0.00 0.00 0.17 95 1012.6
20260503024628 37 333 2.0 2.0 0.00 0.00 0.17 95 1012.8
20260503024127 38 323 2.0 2.0 0.00 0.00 0.17 94 1013.0
20260503023628 38 333 1.0 1.0 0.00 0.00 0.17 94 1013.0
20260503023127 38 333 1.0 1.0 0.00 0.00 0.17 93 1013.0
20260503022626 38 331 1.0 1.0 0.00 0.00 0.17 93 1013.1
20260503022125 38 326 2.0 2.0 0.00 0.00 0.17 92 1013.0
20260503021624 39 332 2.0 2.0 0.00 0.00 0.17 92 1013.0
20260503021125 39 326 1.0 2.0 0.00 0.00 0.17 91 1013.1
20260503020624 39 327 1.0 1.0 0.00 0.00 0.17 90 1013.3
20260503020123 39 327 1.0 1.0 0.00 0.00 0.17 90 1013.3
20260503015625 39 329 1.0 1.0 0.00 0.00 0.17 88 1013.3
20260503015124 39 333 1.0 1.0 0.00 0.00 0.17 87 1013.1
20260503014623 40 0.0 0.0 0.00 0.00 0.17 86 1013.3
20260503014122 40 335 0.0 1.0 0.00 0.00 0.17 85 1013.1
20260503013623 40 0.0 0.0 0.00 0.00 0.17 84 1013.0
20260503013123 41 0.0 0.0 0.00 0.00 0.17 82 1013.0
20260503012623 41 348 2.0 3.0 0.00 0.00 0.17 82 1013.0
20260503012121 41 345 2.0 2.0 0.00 0.00 0.17 82 1012.8
20260503011620 41 339 2.0 2.0 0.00 0.00 0.17 80 1013.0
20260503011121 41 323 0.0 2.0 0.00 0.00 0.17 79 1013.0
20260503010119 41 329 1.0 1.0 0.00 0.00 0.17 75 1013.0
20260503005123 43 329 1.0 1.0 0.00 0.00 0.17 67 1012.8
20260503004621 43 335 1.0 2.0 0.00 0.00 0.17 67 1012.6
20260503004120 44 341 1.0 2.0 0.00 0.00 0.17 64 1012.6
20260503003119 44 329 1.0 1.0 0.00 0.00 0.17 64 1012.6
20260503002618 44 0.0 0.0 0.00 0.00 0.17 64 1012.6
20260503002117 45 310 2.0 3.0 0.00 0.00 0.17 61 1012.6
20260503001618 45 324 1.0 2.0 0.00 0.00 0.17 62 1012.6
20260503001118 46 303 3.0 3.0 0.00 0.00 0.17 58 1012.3
20260503000616 46 343 4.0 7.0 0.00 0.00 0.17 58 1012.3
20260503000116 46 331 2.0 3.0 0.00 0.00 0.17 57 1012.3
20260502235617 47 324 1.0 1.0 0.00 0.00 0.17 56 1012.3
20260502235314 47 345 4.0 6.0 0.00 0.00 0.17 55 1011.9
20260502234145 48 322 2.0 5.0 0.00 0.00 0.17 54 1011.9
20260502233646 48 330 2.0 3.0 0.00 0.00 0.17 53 1011.9
20260502233145 49 310 2.0 3.0 0.00 0.00 0.17 54 1011.7
20260502232644 49 325 1.0 1.0 0.00 0.00 0.17 51 1011.9
20260502232143 49 344 1.0 5.0 0.00 0.00 0.17 51 1011.9
20260502231643 49 299 2.0 5.0 0.00 0.00 0.17 50 1011.6
20260502231144 50 312 3.0 6.0 0.00 0.00 0.17 49 1011.6
20260502230142 49 318 5.0 7.0 0.00 0.00 0.17 53 1011.6
20260502225642 50 328 1.0 1.0 0.00 0.00 0.17 59 1011.6
20260502225143 49 330 2.0 2.0 0.00 0.00 0.17 57 1011.6
20260502224641 49 338 1.0 2.0 0.00 0.00 0.17 55 1011.6
20260502223141 49 325 3.0 7.0 0.00 0.00 0.17 58 1011.6
20260502222642 49 323 2.0 3.0 0.00 0.00 0.17 59 1011.6
20260502222142 49 331 3.0 6.0 0.00 0.00 0.17 61 1011.6
20260502221639 50 336 0.0 1.0 0.00 0.00 0.17 69 1011.6
20260502221138 50 333 2.0 2.0 0.00 0.00 0.17 60 1011.6
20260502220739 50 334 2.0 3.0 0.00 0.00 0.17 58 1011.4
20260502220139 50 308 3.0 6.0 0.00 0.00 0.17 60 1011.6
20260502215638 50 337 3.0 3.0 0.00 0.00 0.17 60 1011.6
20260502215139 50 314 1.0 2.0 0.00 0.00 0.17 61 1011.4
20260502214640 50 319 2.0 3.0 0.00 0.00 0.17 60 1011.6
20260502214137 50 338 3.0 5.0 0.00 0.00 0.17 60 1011.2
20260502213636 50 334 2.0 3.0 0.00 0.00 0.17 60 1011.2
20260502213135 51 334 2.0 5.0 0.00 0.00 0.17 62 1011.2
20260502212637 51 299 3.0 5.0 0.00 0.00 0.17 62 1011.2
20260502212136 51 337 1.0 1.0 0.00 0.00 0.17 63 1011.2
20260502211735 50 324 2.0 3.0 0.00 0.00 0.17 61 1011.4
20260502211236 51 325 3.0 3.0 0.00 0.00 0.17 64 1011.2
20260502210635 51 330 2.0 2.0 0.00 0.00 0.17 64 1011.2
20260502210135 51 336 0.0 1.0 0.00 0.00 0.17 62 1011.2
20260502205634 51 327 1.0 1.0 0.00 0.00 0.17 63 1011.2
20260502205135 51 333 1.0 1.0 0.00 0.00 0.17 62 1011.2
20260502204634 51 328 1.0 2.0 0.00 0.00 0.17 62 1011.4
20260502203632 50 322 1.0 2.0 0.00 0.00 0.17 64 1011.2
20260502203132 50 348 3.0 5.0 0.00 0.00 0.17 66 1011.2
20260502202633 50 330 2.0 3.0 0.00 0.00 0.17 67 1011.2
20260502202132 50 332 3.0 6.0 0.00 0.00 0.17 69 1011.2
20260502201632 50 354 4.0 6.0 0.00 0.00 0.17 67 1011.4
20260502201130 50 349 2.0 3.0 0.00 0.00 0.17 69 1011.6
20260502200632 50 315 2.0 2.0 0.00 0.00 0.17 69 1011.2
20260502200131 51 314 2.0 3.0 0.00 0.00 0.17 68 1011.4
20260502195630 51 324 2.0 2.0 0.00 0.00 0.17 69 1011.2
20260502195135 51 299 2.0 3.0 0.00 0.00 0.17 71 1011.4
20260502194628 51 356 3.0 5.0 0.00 0.00 0.17 67 1011.6
20260502194129 52 290 4.0 10.0 0.00 0.00 0.17 69 1011.6
20260502193629 52 319 2.0 5.0 0.00 0.00 0.17 67 1011.6
20260502193128 52 308 5.0 7.0 0.00 0.00 0.17 67 1011.6
20260502192729 52 356 2.0 5.0 0.00 0.00 0.17 67 1011.6
20260502192128 53 291 2.0 3.0 0.00 0.00 0.17 67 1011.6
20260502191629 52 337 3.0 6.0 0.00 0.00 0.17 67 1011.6
20260502191127 54 336 1.0 2.0 0.00 0.00 0.17 66 1011.6
20260502190626 52 148 3.0 6.0 0.00 0.00 0.17 70 1011.6
20260502190127 52 353 3.0 5.0 0.00 0.00 0.17 73 1011.6
20260502185627 53 331 1.0 2.0 0.00 0.00 0.17 71 1011.6
20260502185127 51 327 2.0 3.0 0.00 0.00 0.17 72 1011.6
20260502184625 51 320 2.0 2.0 0.00 0.00 0.17 72 1011.6
20260502184126 51 344 2.0 3.0 0.00 0.00 0.17 73 1011.6
20260502183224 51 6 6.0 9.0 0.00 0.00 0.17 73 1011.9
20260502182224 51 319 5.0 7.0 0.00 0.00 0.17 70 1011.9
20260502181123 51 2 7.0 10.0 0.00 0.00 0.17 72 1011.7
20260502180622 52 300 4.0 6.0 0.00 0.00 0.17 71 1011.9
20260502180123 53 310 2.0 5.0 0.00 0.00 0.17 70 1011.9
20260502170117 50 196 3.0 5.0 0.00 0.00 0.17 83 1011.6
20260502164119 49 312 3.0 5.0 0.00 0.00 0.17 90 1011.9
20260502163616 49 315 2.0 3.0 0.00 0.00 0.17 90 1011.9
20260502163147 48 324 1.0 2.0 0.00 0.00 0.17 90 1011.9
20260502162648 48 323 3.0 5.0 0.00 0.00 0.17 90 1012.3
20260502161646 49 316 5.0 8.0 0.00 0.00 0.17 90 1011.9
20260502161146 49 345 3.0 5.0 0.00 0.00 0.17 90 1011.9
20260502160644 49 344 2.0 3.0 0.00 0.00 0.17 91 1012.3
20260502160144 49 341 1.0 1.0 0.00 0.00 0.17 94 1012.3
20260502152141 46 3 2.0 2.0 0.00 0.00 0.17 98 1012.3
20260502151640 48 139 6.0 8.0 0.00 0.00 0.17 98 1012.3
20260502151142 47 46 3.0 3.0 0.00 0.00 0.17 97 1012.3
20260502150641 46 196 2.0 2.0 0.00 0.00 0.17 99 1012.3
20260502150140 45 137 3.0 6.0 0.00 0.00 0.17 99 1012.3
20260502130632 43 7 2.0 2.0 0.00 0.00 0.17 99 1012.6
20260502130132 43 314 1.0 2.0 0.00 0.00 0.17 99 1012.8
20260502123630 42 135 5.0 6.0 0.00 0.00 0.17 99 1012.8
20260502123131 42 139 4.0 5.0 0.00 0.00 0.17 99 1013.0
20260502122630 42 297 2.0 3.0 0.00 0.00 0.17 99 1012.6
20260502122129 42 24 2.0 3.0 0.00 0.00 0.17 99 1012.6
20260502121628 42 339 1.0 1.0 0.00 0.00 0.17 99 1013.0
20260502121128 42 324 1.0 1.0 0.00 0.00 0.17 99 1012.6
20260502120629 42 319 1.0 1.0 0.00 0.00 0.17 99 1012.8
20260502120128 42 333 1.0 1.0 0.00 0.00 0.17 99 1012.6
20260502115627 42 296 2.0 2.0 0.00 0.00 0.17 99 1013.0
20260502115126 42 332 1.0 1.0 0.00 0.00 0.17 99 1012.6
20260502114127 42 332 1.0 2.0 0.00 0.00 0.17 99 1012.6
20260502113626 42 340 1.0 1.0 0.00 0.00 0.17 99 1012.6
20260502113125 41 0.0 0.0 0.00 0.00 0.17 99 1012.6
20260502112624 41 16 2.0 2.0 0.00 0.00 0.17 99 1012.6
20260502112126 41 5 2.0 2.0 0.00 0.00 0.17 99 1012.6
20260502111226 41 318 1.0 1.0 0.00 0.00 0.17 99 1013.0
20260502110623 41 341 1.0 2.0 0.00 0.00 0.17 99 1012.6
20260502110124 41 345 1.0 1.0 0.00 0.00 0.17 99 1012.6
20260502105623 41 0.0 0.0 0.00 0.00 0.17 99 1012.6
20260502105123 41 341 0.0 1.0 0.00 0.00 0.17 99 1012.3
20260502104624 41 0.0 0.0 0.00 0.00 0.17 99 1012.3
20260502104123 41 0.0 0.0 0.00 0.00 0.17 99 1012.3
20260502103622 41 0.0 0.0 0.00 0.00 0.17 99 1012.3
20260502103121 40 331 0.0 1.0 0.00 0.00 0.17 99 1012.3
20260502102622 40 0.0 0.0 0.00 0.00 0.17 99 1012.3
20260502102122 40 0.0 0.0 0.00 0.00 0.17 99 1012.3
20260502101621 40 333 1.0 1.0 0.00 0.00 0.17 99 1012.3
20260502101122 40 0.0 0.0 0.00 0.00 0.17 99 1012.1
20260502100619 40 331 0.0 1.0 0.00 0.00 0.17 99 1012.3
20260502100120 40 335 1.0 1.0 0.00 0.00 0.17 99 1012.3
20260502091116 40 0.0 0.0 0.00 0.00 0.17 99 1012.6
20260502090646 40 334 1.0 1.0 0.00 0.00 0.17 99 1012.6
20260502090117 40 0.0 0.0 0.00 0.00 0.17 99 1012.6
20260502071138 41 0.0 0.0 0.00 0.00 0.09 99 1012.6
20260502070638 41 0.0 0.0 0.00 0.00 0.09 99 1013.0
20260502070137 41 0.0 0.0 0.00 0.00 0.08 99 1012.6
20260502065636 41 0.0 0.0 0.00 0.00 0.08 99 1013.0
20260502065137 41 331 1.0 1.0 0.00 0.00 0.08 99 1013.0
20260502064637 41 338 0.0 1.0 0.00 0.00 0.08 99 1013.0
20260502063637 41 0.0 0.0 0.00 0.00 0.08 99 1013.0
20260502063136 41 0.0 0.0 0.00 0.00 0.08 99 1013.0
20260502062634 41 0.0 0.0 0.00 0.00 0.08 99 1013.0
20260502062134 41 337 1.0 1.0 0.00 0.00 0.08 99 1013.3
20260502061635 41 329 0.0 1.0 0.00 0.00 0.08 99 1013.3
20260502061138 42 0.0 0.0 0.00 0.00 0.08 99 1013.3
20260502060635 42 0.0 0.0 0.00 0.00 0.08 99 1013.3
20260502060234 42 336 0.0 1.0 0.00 0.00 0.08 99 1013.3
20260502055633 42 326 1.0 1.0 0.00 0.00 0.08 99 1013.7
20260502055135 42 0.0 0.0 0.00 0.00 0.07 99 1013.7
20260502054632 42 339 1.0 2.0 0.00 0.00 0.05 99 1014.0
20260502054131 42 326 1.0 1.0 0.00 0.00 0.04 99 1014.0
20260502053632 42 0.0 0.0 0.00 0.00 0.03 98 1013.7
20260502053131 42 0.0 0.0 0.00 0.00 0.02 97 1013.7
20260502052630 43 328 0.0 1.0 0.00 0.00 0.01 95 1013.5
20260502052130 43 331 0.0 1.0 0.00 0.00 0.01 93 1013.5
20260502051632 44 337 1.0 1.0 0.00 0.00 0.00 90 1013.3